Shepherd Bay, Nunavut

7:21 AM CDT on June 29, 2017 (GMT -0500)
Shepherd Bay

Weather History for CYUS - January, 2013

Change the Weather History Date:

Monday, January 14, 2013

  Actual Average Record
Temperature  
Mean Temperature -51 °F -  
Max Temperature -47 °F - - ()
Min Temperature -55 °F -41 °F - ()
Degree Days  
Heating Degree Days 116    
Moisture  
Dew Point -    
Average Humidity    
Maximum Humidity    
Minimum Humidity    
Precipitation  
Precipitation 0.00 in 0.01 in - ()
Sea Level Pressure  
Sea Level Pressure 29.95 in    
Wind  
Wind Speed 8 mph ()    
Max Wind Speed 12 mph    
Max Gust Speed -    
Visibility 7.6 miles    
Events      
T = Trace of Precipitation, MM = Missing Value Source: Averaged Metar Reports

Daily Weather History Graph

Daily Weather History Graph

Search for Another Location

Airport or City:

Trip Planner

Search our weather history database for the weather conditions in past years. The results will help you decide how hot, cold, wet, or windy it might be!

Date:

Astronomy

Jan. 14, 2013 Rise Set
Actual Time 11:15 AM CST 1:31 PM CST
Civil Twilight 9:17 AM CST 3:29 PM CST
Nautical Twilight 7:53 AM CST 4:53 PM CST
Astronomical Twilight 6:42 AM CST 6:04 PM CST
Moon 9:51 AM CST (1/14) 8:30 PM CST (1/14)
Length of Visible Light 6h 11m
Length of Day
2h 15m
Waxing Crescent, 11% of the Moon is Illuminated
Jan 14
Waxing Crescent
Jan 18
First Quarter
Jan 26
Full
Feb 3
Last Quarter
Feb 10
New

Hourly Weather History & Observations

Time (CST) Temp. Windchill Dew Point Humidity Pressure Visibility Wind Dir Wind Speed Gust Speed Precip Events Conditions
12:00 AM -48 °F - - % 30.04 in 9 mi SE 8.1 mph - -  
12:00 AM -47.2 °F -73.4 °F - N/A% 30.04 in 9.0 mi SE 9.2 mph - N/A   Unknown
1:00 AM -47.2 °F -71.7 °F - N/A% 30.03 in 9.0 mi SE 8.1 mph - N/A   Unknown
2:00 AM -47.2 °F -74.9 °F - N/A% 30.02 in 3.0 mi ESE 10.4 mph - N/A   Unknown
2:14 AM -49.0 °F - - N/A% 29.98 in 9.0 mi ESE 9.2 mph - N/A   Unknown
3:00 AM -49 °F - - % 30.00 in 9 mi ESE 8.1 mph - -  
3:00 AM -49.0 °F - - N/A% 30.00 in 9.0 mi ESE 9.2 mph - N/A   Unknown
4:00 AM -49.0 °F - - N/A% 30.00 in 9.0 mi SE 8.1 mph - N/A   Unknown
5:00 AM -50.8 °F - - N/A% 29.99 in 9.0 mi SE 9.2 mph - N/A   Unknown
6:00 AM -52 °F - - % 29.98 in 9 mi SE 9.2 mph - -  
6:00 AM -52.6 °F - - N/A% 29.98 in 9.0 mi SE 9.2 mph - N/A   Unknown
7:00 AM -52.6 °F - - N/A% 29.97 in 9.0 mi ESE 8.1 mph - N/A   Unknown
8:00 AM -52.6 °F - - N/A% 29.97 in 7.0 mi ESE 10.4 mph - N/A   Unknown
9:00 AM -54 °F - - % 29.96 in 6 mi SE 9.2 mph - -  
9:00 AM -54.4 °F - - N/A% 29.96 in 6.0 mi SE 9.2 mph - N/A   Unknown
10:00 AM -54.4 °F - - N/A% 29.96 in 4.0 mi SE 9.2 mph - N/A   Unknown
11:00 AM -54.4 °F - - N/A% 29.94 in 5.0 mi SE 5.8 mph - N/A   Unknown
12:00 PM -55 °F - - % 29.94 in 6 mi ESE 11.5 mph - -  
12:00 PM -54.4 °F - - N/A% 29.94 in 6.0 mi ESE 11.5 mph - N/A   Unknown
1:00 PM -54.4 °F - - N/A% 29.93 in 5.0 mi ESE 9.2 mph - N/A   Unknown
2:00 PM -54.4 °F - - N/A% 29.93 in 7.0 mi ESE 9.2 mph - N/A   Unknown
3:00 PM -54 °F - - % 29.94 in 4 mi ESE 10.4 mph - -  
3:00 PM -54.4 °F - - N/A% 29.94 in 4.0 mi ESE 11.5 mph - N/A   Unknown
4:00 PM -54.4 °F - - N/A% 29.94 in 8.0 mi ESE 10.4 mph - N/A   Unknown
5:00 PM -54.4 °F - - N/A% 29.92 in 9.0 mi ESE 10.4 mph - N/A   Unknown
6:00 PM -55 °F - - % 29.91 in 9 mi SE 10.4 mph - -  
6:00 PM -54.4 °F - - N/A% 29.91 in 9.0 mi SE 10.4 mph - N/A   Unknown
7:00 PM -54.4 °F - - N/A% 29.90 in 9.0 mi SE 9.2 mph - N/A   Unknown
8:00 PM -54.4 °F - - N/A% 29.89 in 9.0 mi ESE 9.2 mph - N/A   Unknown
9:00 PM -54 °F - - % 29.88 in 9 mi SE 9.2 mph - -  
9:00 PM -54.4 °F - - N/A% 29.88 in 9.0 mi SE 9.2 mph - N/A   Unknown
10:00 PM -52.6 °F - - N/A% 29.87 in 9.0 mi SE 9.2 mph - N/A   Unknown
11:00 PM -52.6 °F - - N/A% 29.86 in 9.0 mi SE 8.1 mph - N/A   Unknown